Newton, KS

2:49 AM CDT on September 18, 2019 (GMT -0500)
Newton City County

Weather History for KEWK - July, 2019

Change the Weather History Date:

Saturday, July 27, 2019

  Actual Average Record
Temperature  
Mean Temperature 78 °F -  
Max Temperature 91 °F 87 °F 109 °F (2011)
Min Temperature 64 °F 67 °F 53 °F (2005)
Cooling Degree Days 12    
Growing Degree Days 28 (Base 50)    
Moisture  
Dew Point 59 °F    
Average Humidity 52    
Maximum Humidity 80    
Minimum Humidity 33    
Precipitation  
Precipitation 0.00 in - - ()
Sea Level Pressure  
Sea Level Pressure 30.09 in    
Wind  
Wind Speed 13 mph (South)    
Max Wind Speed 21 mph    
Max Gust Speed 25 mph    
Visibility 10 miles    
Events      
Averages and records for this station are not official NWS values.
T = Trace of Precipitation, MM = Missing Value Source: NWS Daily Summary

Daily Weather History Graph

Daily Weather History Graph

Search for Another Location

Airport or City:

Astronomy

Jul. 27, 2019 Rise Set
Actual Time 6:27 AM CDT 8:43 PM CDT
Civil Twilight 5:57 AM CDT 9:12 PM CDT
Nautical Twilight 5:21 AM CDT 9:49 PM CDT
Astronomical Twilight 4:41 AM CDT 10:28 PM CDT
Moon 2:13 AM CDT (7/27) 4:36 PM CDT (7/27)
Length of Visible Light 15h 14m
Length of Day
14h 15m
Waning Crescent, 24% of the Moon is Illuminated
Jul 27
Waning Crescent
Jul 31
New
Aug 7
First Quarter
Aug 15
Full
Aug 23
Last Quarter

Hourly Weather History & Observations

Time (CDT) Temp. Heat Index Dew Point Humidity Pressure Visibility Wind Dir Wind Speed Gust Speed Precip Events Conditions
12:56 AM 71.1 °F - 57.9 °F 63% 30.10 in 10.0 mi South 12.7 mph - N/A   Unknown
1:56 AM 68.0 °F - 57.9 °F 70% 30.10 in 10.0 mi SSE 8.1 mph - N/A   Unknown
2:56 AM 66.0 °F - 57.9 °F 75% 30.10 in 10.0 mi SSE 8.1 mph - N/A   Unknown
4:56 AM 64.0 °F - 57.9 °F 80% 30.10 in 10.0 mi South 8.1 mph - N/A   Unknown
5:56 AM 66.0 °F - 57.9 °F 75% 30.11 in 10.0 mi South 9.2 mph - N/A   Unknown
6:56 AM 64.9 °F - 57.9 °F 78% 30.12 in 10.0 mi South 8.1 mph - N/A   Unknown
7:56 AM 71.1 °F - 59.0 °F 66% 30.13 in 10.0 mi South 12.7 mph - N/A   Unknown
8:56 AM 75.9 °F - 59.0 °F 56% 30.13 in 10.0 mi SSW 20.7 mph - N/A   Unknown
9:56 AM 79.0 °F - 60.1 °F 52% 30.13 in 10.0 mi SSW 15.0 mph 25.3 mph N/A   Unknown
10:56 AM 82.0 °F 82.4 °F 60.1 °F 47% 30.12 in 10.0 mi SSW 20.7 mph - N/A   Clear
11:56 AM 84.9 °F 84.8 °F 60.1 °F 43% 30.11 in 10.0 mi SSW 18.4 mph - N/A   Clear
12:13 PM 84.2 °F 84.4 °F 60.8 °F 45% 30.15 in 10.0 mi SSW 18.4 mph - N/A   Scattered Clouds
12:56 PM 87.1 °F 86.7 °F 60.1 °F 40% 30.10 in 10.0 mi SSW 15.0 mph 23.0 mph N/A   Clear
1:56 PM 88.0 °F 87.1 °F 59.0 °F 37% 30.09 in 10.0 mi South 15.0 mph 19.6 mph N/A   Clear
2:56 PM 90.0 °F 89.1 °F 59.0 °F 35% 30.08 in 10.0 mi SSW 13.8 mph 20.7 mph N/A   Unknown
3:56 PM 90.0 °F 89.1 °F 59.0 °F 35% 30.06 in 10.0 mi South 20.7 mph 24.2 mph N/A   Unknown
4:56 PM 91.0 °F 90.0 °F 57.9 °F 33% 30.04 in 10.0 mi South 17.3 mph - N/A   Unknown
5:56 PM 89.1 °F 88.0 °F 57.9 °F 35% 30.03 in 10.0 mi South 17.3 mph - N/A   Unknown
6:56 PM 87.1 °F 86.1 °F 57.9 °F 37% 30.02 in 10.0 mi SSE 13.8 mph - N/A   Unknown
7:56 PM 84.9 °F 84.8 °F 60.1 °F 43% 30.02 in 10.0 mi SSE 15.0 mph 19.6 mph N/A   Unknown
8:56 PM 81.0 °F 81.3 °F 59.0 °F 47% 30.03 in 10.0 mi SSE 11.5 mph - N/A   Unknown
9:56 PM 79.0 °F - 60.1 °F 52% 30.04 in 10.0 mi SSE 11.5 mph - N/A   Unknown